Location: Schommer Observatory
(40.5200°N, 74.4500°W)
Time: 23:18:26
(UTC-04:00)

Tiangong 2 - Pass Details

Date: 20 May 2018
Orbit: 382 x 385 km, 42.8° (Epoch: 24 May)

Event Time Altitude Azimuth Distance (km) Brightness Sun altitude
Rises 20:52:31 0° 199° (SSW) 2,237 4.8 -7.4°
Reaches altitude 10° 20:55:40 10° 165° (SSE) 1,389 3.4 -7.8°
Maximum altitude 20:56:49 12° 143° (SE) 1,302 3.1 -8.0°
Enters shadow 20:57:23 11° 132° (SE) 1,325 3.1 -8.1°
